| time (UTC) | temp F | wind direction | speed MPH | gust MPH | rain 1hr in | rain 24hr in | rain mn in | humidity % | barometer mb |
| 20260903081540 | 63 | 217 | 2.0 | 5.0 | 0.01 | 1.31 | 0.12 | 92 | 958.7 |
| 20260903080037 | 63 | 213 | 2.0 | 4.0 | 0.00 | 1.30 | 0.11 | 92 | 958.6 |
| 20260903074537 | 63 | 222 | 1.0 | 4.0 | 0.00 | 1.30 | 0.11 | 92 | 958.8 |
| 20260903073046 | 64 | 225 | 2.0 | 8.0 | 0.00 | 1.30 | 0.11 | 92 | 958.7 |
| 20260903071535 | 64 | 227 | 5.0 | 10.0 | 0.00 | 1.30 | 0.11 | 92 | 958.7 |
| 20260903070034 | 64 | 221 | 4.0 | 10.0 | 0.00 | 1.30 | 0.11 | 92 | 958.6 |
| 20260903064534 | 64 | 208 | 4.0 | 8.0 | 0.00 | 1.30 | 0.11 | 92 | 958.9 |
| 20260903063031 | 64 | 231 | 3.0 | 9.0 | 0.00 | 1.30 | 0.11 | 92 | 958.7 |
| 20260903061546 | 64 | 231 | 5.0 | 10.0 | 0.00 | 1.30 | 0.11 | 92 | 958.8 |
| 20260903060029 | 64 | 219 | 5.0 | 10.0 | 0.00 | 1.30 | 0.11 | 92 | 959.1 |
| 20260903054528 | 64 | 200 | 4.0 | 8.0 | 0.00 | 1.30 | 0.11 | 92 | 959.1 |
| 20260903053027 | 64 | 186 | 3.0 | 10.0 | 0.02 | 1.30 | 0.11 | 92 | 959.0 |
| 20260903051526 | 64 | 232 | 4.0 | 10.0 | 0.08 | 1.30 | 0.11 | 92 | 959.3 |
| 20260903050028 | 64 | 213 | 6.0 | 10.0 | 0.11 | 1.30 | 0.11 | 92 | 959.3 |
| 20260903044523 | 64 | 229 | 6.0 | 12.0 | 0.22 | 1.30 | 0.11 | 91 | 958.9 |
| 20260903043021 | 65 | 211 | 9.0 | 16.0 | 0.21 | 1.28 | 0.09 | 92 | 959.2 |
| 20260903041528 | 65 | 240 | 8.0 | 13.0 | 0.16 | 1.22 | 0.03 | 91 | 960.2 |
| 20260903040012 | 66 | 220 | 10.0 | 20.0 | 0.15 | 1.19 | 0.00 | 91 | 960.5 |
| 20260903034512 | 66 | 246 | 5.0 | 9.0 | 0.06 | 1.08 | 1.08 | 91 | 960.5 |
| 20260903033015 | 66 | 194 | 5.0 | 10.0 | 0.07 | 1.07 | 1.07 | 91 | 958.9 |
| 20260903031518 | 65 | 228 | 4.0 | 11.0 | 0.09 | 1.05 | 1.05 | 92 | 959.6 |
| 20260903030009 | 65 | 200 | 5.0 | 16.0 | 0.12 | 1.04 | 1.04 | 91 | 959.7 |
| 20260903024507 | 64 | 250 | 9.0 | 17.0 | 0.36 | 1.02 | 1.02 | 91 | 960.8 |
| 20260903023006 | 64 | 242 | 10.0 | 15.0 | 0.57 | 0.99 | 0.99 | 91 | 960.9 |
| 20260903021505 | 64 | 197 | 5.0 | 13.0 | 0.55 | 0.96 | 0.96 | 91 | 960.4 |
| 20260903020015 | 63 | 227 | 5.0 | 15.0 | 0.51 | 0.91 | 0.91 | 90 | 961.3 |
| 20260903014625 | 66 | 253 | 13.0 | 28.0 | 0.26 | 0.66 | 0.66 | 91 | 963.7 |
| 20260903013104 | 67 | 174 | 3.0 | 10.0 | 0.01 | 0.41 | 0.41 | 91 | 960.2 |
| 20260903010109 | 67 | 151 | 3.0 | 10.0 | 0.00 | 0.40 | 0.40 | 91 | 960.4 |
| 20260903004559 | 67 | 189 | 1.0 | 6.0 | 0.00 | 0.40 | 0.40 | 91 | 959.7 |
| 20260903003108 | 67 | 196 | 2.0 | 10.0 | 0.00 | 0.40 | 0.40 | 91 | 960.0 |
| 20260903001601 | 67 | 179 | 1.0 | 11.0 | 0.00 | 0.40 | 0.40 | 91 | 960.1 |
| 20260903000053 | 67 | 126 | 3.0 | 16.0 | 0.00 | 0.40 | 0.40 | 91 | 960.0 |
| 20260902234554 | 67 | 225 | 4.0 | 12.0 | 0.00 | 0.40 | 0.40 | 91 | 959.8 |
| 20260902233052 | 68 | 219 | 2.0 | 10.0 | 0.00 | 0.40 | 0.40 | 91 | 959.8 |
| 20260902231552 | 68 | 143 | 1.0 | 6.0 | 0.00 | 0.40 | 0.40 | 91 | 960.3 |
| 20260902230058 | 68 | 184 | 1.0 | 7.0 | 0.00 | 0.40 | 0.40 | 91 | 959.9 |
| 20260902224555 | 68 | 126 | 1.0 | 5.0 | 0.00 | 0.40 | 0.40 | 91 | 959.8 |
| 20260902223049 | 68 | 111 | 2.0 | 9.0 | 0.00 | 0.40 | 0.40 | 91 | 959.7 |
| 20260902221547 | 68 | 107 | 3.0 | 8.0 | 0.00 | 0.40 | 0.40 | 91 | 960.0 |
| 20260902220049 | 68 | 138 | 1.0 | 7.0 | 0.00 | 0.40 | 0.40 | 91 | 960.4 |
| 20260902214549 | 68 | 98 | 0.0 | 5.0 | 0.00 | 0.40 | 0.40 | 91 | 960.5 |
| 20260902213045 | 69 | 173 | 1.0 | 6.0 | 0.00 | 0.40 | 0.40 | 91 | 960.5 |
| 20260902211646 | 69 | 143 | 3.0 | 8.0 | 0.00 | 0.40 | 0.40 | 91 | 960.7 |
| 20260902210044 | 69 | 200 | 5.0 | 12.0 | 0.00 | 0.40 | 0.40 | 91 | 960.8 |
| 20260902204543 | 69 | 200 | 1.0 | 10.0 | 0.00 | 0.40 | 0.40 | 91 | 960.7 |
| 20260902203042 | 68 | 144 | 0.0 | 8.0 | 0.00 | 0.40 | 0.40 | 91 | 960.4 |
| 20260902201551 | 68 | 124 | 1.0 | 7.0 | 0.00 | 0.40 | 0.40 | 91 | 960.7 |
| 20260902200045 | 68 | 141 | 3.0 | 7.0 | 0.00 | 0.40 | 0.40 | 91 | 960.9 |
| 20260902194549 | 68 | 182 | 1.0 | 5.0 | 0.00 | 0.40 | 0.40 | 91 | 961.0 |
| 20260902193043 | 68 | 202 | 1.0 | 7.0 | 0.00 | 0.40 | 0.40 | 92 | 961.5 |
| 20260902191537 | 68 | 186 | 1.0 | 5.0 | 0.00 | 0.40 | 0.40 | 92 | 961.4 |
| 20260902190036 | 68 | 131 | 1.0 | 7.0 | 0.00 | 0.40 | 0.40 | 92 | 961.5 |
| 20260902184540 | 68 | 181 | 1.0 | 6.0 | 0.00 | 0.40 | 0.40 | 92 | 961.6 |
| 20260902183035 | 68 | 65 | 1.0 | 6.0 | 0.00 | 0.40 | 0.40 | 92 | 961.5 |
| 20260902181538 | 68 | 129 | 2.0 | 8.0 | 0.00 | 0.40 | 0.40 | 92 | 961.6 |
| 20260902180036 | 68 | 117 | 1.0 | 5.0 | 0.00 | 0.40 | 0.40 | 92 | 961.9 |
| 20260902174533 | 67 | 143 | 1.0 | 8.0 | 0.00 | 0.40 | 0.40 | 92 | 962.0 |
| 20260902173031 | 67 | 125 | 2.0 | 8.0 | 0.00 | 0.40 | 0.40 | 92 | 962.3 |
| 20260902171530 | 67 | 103 | 3.0 | 7.0 | 0.00 | 0.40 | 0.40 | 92 | 962.4 |
| 20260902170029 | 67 | 111 | 1.0 | 4.0 | 0.00 | 0.40 | 0.40 | 92 | 962.4 |
| 20260902164529 | 68 | 122 | 2.0 | 4.0 | 0.01 | 0.40 | 0.40 | 92 | 962.6 |
| 20260902163027 | 68 | 103 | 0.0 | 2.0 | 0.05 | 0.40 | 0.40 | 92 | 962.7 |
| 20260902161535 | 68 | 108 | 1.0 | 4.0 | 0.08 | 0.40 | 0.40 | 92 | 962.9 |
| 20260902160026 | 69 | 115 | 0.0 | 4.0 | 0.13 | 0.40 | 0.40 | 92 | 962.4 |
| 20260902154524 | 69 | 242 | 0.0 | 2.0 | 0.15 | 0.39 | 0.39 | 92 | 962.2 |
| 20260902153023 | 68 | 257 | 0.0 | 3.0 | 0.30 | 0.35 | 0.35 | 92 | 962.5 |
| 20260902151527 | 68 | 258 | 1.0 | 7.0 | 0.30 | 0.32 | 0.32 | 92 | 962.6 |
| 20260902150022 | 68 | 168 | 3.0 | 8.0 | 0.26 | 0.27 | 0.27 | 92 | 961.8 |
| 20260902144521 | 68 | 212 | 3.0 | 15.0 | 0.24 | 0.24 | 0.24 | 92 | 961.7 |
| 20260902143018 | 69 | 177 | 2.0 | 7.0 | 0.05 | 0.05 | 0.05 | 92 | 962.2 |
| 20260902141517 | 69 | 190 | 1.0 | 4.0 | 0.02 | 0.02 | 0.02 | 92 | 961.8 |
| 20260902140017 | 69 | 179 | 3.0 | 8.0 | 0.01 | 0.01 | 0.01 | 92 | 962.3 |
| 20260902134524 | 69 | 205 | 3.0 | 8.0 | 0.00 | 0.00 | 0.00 | 92 | 962.6 |
| 20260902133014 | 69 | 187 | 3.0 | 10.0 | 0.00 | 0.00 | 0.00 | 92 | 962.4 |
| 20260902131513 | 69 | 150 | 2.0 | 12.0 | 0.00 | 0.00 | 0.00 | 92 | 961.8 |
| 20260902130013 | 69 | 165 | 2.0 | 7.0 | 0.00 | 0.00 | 0.00 | 92 | 961.9 |
| 20260902124514 | 69 | 115 | 2.0 | 8.0 | 0.00 | 0.01 | 0.00 | 92 | 961.8 |
| 20260902123013 | 69 | 190 | 3.0 | 11.0 | 0.00 | 0.01 | 0.00 | 92 | 961.9 |
| 20260902121509 | 69 | 178 | 2.0 | 9.0 | 0.00 | 0.01 | 0.00 | 92 | 961.7 |
| 20260902120006 | 69 | 169 | 2.0 | 7.0 | 0.00 | 0.01 | 0.00 | 92 | 961.5 |
| 20260902114507 | 69 | 149 | 2.0 | 7.0 | 0.00 | 0.08 | 0.00 | 92 | 961.6 |
| 20260902113003 | 69 | 172 | 2.0 | 9.0 | 0.00 | 0.08 | 0.00 | 92 | 961.3 |
| 20260902111600 | 69 | 163 | 2.0 | 7.0 | 0.00 | 0.08 | 0.00 | 92 | 961.2 |
| 20260902104617 | 69 | 165 | 0.0 | 7.0 | 0.00 | 0.10 | 0.00 | 92 | 961.3 |
| 20260902103054 | 69 | 175 | 2.0 | 7.0 | 0.00 | 0.10 | 0.00 | 92 | 961.4 |
| 20260902101557 | 69 | 187 | 2.0 | 7.0 | 0.00 | 0.10 | 0.00 | 92 | 961.5 |
| 20260902100114 | 69 | 202 | 2.0 | 9.0 | 0.00 | 0.10 | 0.00 | 92 | 961.7 |
| 20260902094554 | 69 | 181 | 1.0 | 5.0 | 0.00 | 0.10 | 0.00 | 92 | 961.5 |
| 20260902093100 | 68 | 178 | 1.0 | 4.0 | 0.00 | 0.10 | 0.00 | 91 | 961.6 |
| 20260902091552 | 68 | 190 | 1.0 | 3.0 | 0.00 | 0.10 | 0.00 | 91 | 961.5 |
| 20260902090053 | 68 | 192 | 2.0 | 5.0 | 0.00 | 0.10 | 0.00 | 91 | 961.5 |
| 20260902084554 | 68 | 213 | 2.0 | 5.0 | 0.00 | 0.13 | 0.00 | 91 | 961.6 |
| 20260902083102 | 68 | 182 | 2.0 | 6.0 | 0.00 | 0.13 | 0.00 | 91 | 961.5 |